Location: Unspecified
(0.0000°N, 0.0000°E)
Time: 21:06:08
(UTC+00:00)

Tiros 1 - Visible Passes

Search period start: 16 April 2026 00:00
Search period end: 26 April 2026 00:00
Orbit: 618 x 649 km, 48.4° (Epoch: 16 April)

Date Brightness Start Highest point End Pass type
(mag) Time Alt. Az. Time Alt. Az. Time Alt. Az.
16 Apr 7.1 19:25:45 10° NW 19:30:27 80° SW 19:31:32 53° SSE visible
17 Apr 8.9 19:47:59 10° WNW 19:51:56 26° SW 19:53:05 24° SSW visible
18 Apr 7.1 18:26:59 10° NNW 18:31:41 73° NE 18:36:24 10° SE visible
19 Apr 8.5 18:48:49 10° WNW 18:53:09 36° SW 18:57:29 10° SSE visible
20 Apr 8.9 05:18:20 10° S 05:22:16 28° SE 05:26:10 10° ENE visible
20 Apr 9.8 19:12:35 10° WSW 19:14:41 13° SW 19:16:47 10° SSW visible
22 Apr 9.3 04:20:44 13° S 04:23:29 20° SE 04:26:52 10° E visible
23 Apr 7.4 04:42:15 23° SSW 04:44:58 63° SE 04:49:27 10° NE visible
24 Apr 9.9 03:26:18 13° ESE 03:26:18 13° ESE 03:27:16 10° E visible
24 Apr 7.6 05:03:44 20° WSW 05:06:25 40° NW 05:10:40 10° NNE visible
25 Apr 8.7 03:47:42 32° E 03:47:42 32° E 03:50:32 10° ENE visible
25 Apr 9.0 05:25:39 10° W 05:27:55 14° NW 05:30:11 10° NNW visible
